Time,TemperatureF,DewpointF,PressureIn,WindDirection,WindDirectionDegrees,WindSpeedMPH,WindSpeedGustMPH,Humidity,HourlyPrecipIn,Conditions,Clouds,dailyrainin,SoftwareType,DateUTC
2013-01-30 00:02:00,35.0,33.0,29.53,NNE,14,8.0,12.0,92,0.01,,,0.85,,2013-01-30 06:02:00,
2013-01-30 00:11:00,35.0,33.0,29.53,NNE,14,8.0,12.0,92,0.01,,,0.85,,2013-01-30 06:11:00,
2013-01-30 00:21:00,35.0,33.0,29.52,North,9,9.0,13.0,92,0.01,,,0.85,,2013-01-30 06:21:00,
2013-01-30 00:32:00,35.0,33.0,29.54,NW,325,7.0,12.0,92,0.02,,,0.86,,2013-01-30 06:32:00,
2013-01-30 00:42:00,35.0,33.0,29.54,NW,325,7.0,12.0,92,0.02,,,0.86,,2013-01-30 06:42:00,
2013-01-30 00:51:00,35.0,33.0,29.49,North,360,11.0,15.0,92,0.03,,,0.85,,2013-01-30 06:51:00,
2013-01-30 01:02:00,35.0,33.0,29.51,NNE,18,5.0,11.0,91,0.03,,,0.80,,2013-01-30 07:02:00,
2013-01-30 01:11:00,35.0,33.0,29.51,NNE,18,5.0,11.0,91,0.03,,,0.80,,2013-01-30 07:11:00,
2013-01-30 01:21:00,34.0,32.0,29.53,North,355,5.0,13.0,91,0.03,,,0.76,,2013-01-30 07:21:00,
2013-01-30 01:32:00,34.0,32.0,29.52,NNE,22,11.0,14.0,91,0.02,,,0.71,,2013-01-30 07:32:00,
2013-01-30 01:41:00,34.0,32.0,29.52,NNE,22,11.0,14.0,91,0.02,,,0.71,,2013-01-30 07:41:00,
2013-01-30 01:52:00,34.0,32.0,29.49,NNE,24,7.0,14.0,91,0.01,,,0.68,,2013-01-30 07:52:00,
2013-01-30 02:01:00,34.0,32.0,29.48,North,5,4.0,16.0,91,0.01,,,0.66,,2013-01-30 08:01:00,
2013-01-30 02:11:00,34.0,32.0,29.48,North,5,4.0,16.0,91,0.01,,,0.66,,2013-01-30 08:11:00,
2013-01-30 02:21:00,33.0,31.0,29.47,NNW,333,4.0,14.0,91,0.01,,,0.65,,2013-01-30 08:21:00,
2013-01-30 02:32:00,33.0,31.0,29.47,NNE,20,8.0,14.0,91,0.01,,,0.60,,2013-01-30 08:32:00,
2013-01-30 02:42:00,33.0,31.0,29.47,NNE,20,8.0,14.0,91,0.01,,,0.60,,2013-01-30 08:42:00,
2013-01-30 02:52:00,33.0,31.0,29.48,North,5,5.0,12.0,91,0.01,,,0.60,,2013-01-30 08:52:00,
2013-01-30 03:01:00,33.0,31.0,29.50,North,351,4.0,11.0,91,0.00,,,0.59,,2013-01-30 09:01:00,
2013-01-30 03:11:00,33.0,31.0,29.50,North,351,4.0,11.0,91,0.00,,,0.59,,2013-01-30 09:11:00,
2013-01-30 03:21:00,33.0,31.0,29.51,North,5,3.0,9.0,92,0.00,,,0.58,,2013-01-30 09:21:00,
2013-01-30 03:32:00,33.0,31.0,29.49,NNE,32,4.0,8.0,92,0.00,,,0.57,,2013-01-30 09:32:00,
2013-01-30 03:42:00,33.0,31.0,29.49,NNE,32,4.0,8.0,92,0.00,,,0.57,,2013-01-30 09:42:00,
2013-01-30 03:52:00,33.0,31.0,29.50,NNW,335,4.0,10.0,91,0.00,,,0.56,,2013-01-30 09:52:00,
2013-01-30 04:01:00,33.0,31.0,29.49,North,355,5.0,6.0,92,0.01,,,0.57,,2013-01-30 10:01:00,
2013-01-30 04:11:00,33.0,31.0,29.49,North,355,5.0,6.0,92,0.01,,,0.57,,2013-01-30 10:11:00,
2013-01-30 04:21:00,33.0,31.0,29.46,North,5,3.0,7.0,92,0.01,,,0.57,,2013-01-30 10:21:00,
2013-01-30 04:31:00,32.0,30.0,29.49,North,9,0.0,6.0,92,0.03,,,0.58,,2013-01-30 10:31:00,
2013-01-30 04:41:00,32.0,30.0,29.49,North,9,0.0,6.0,92,0.03,,,0.58,,2013-01-30 10:41:00,
2013-01-30 04:52:00,32.0,30.0,29.50,NNE,13,3.0,5.0,92,0.03,,,0.58,,2013-01-30 10:52:00,
2013-01-30 05:02:00,32.0,30.0,29.47,North,355,4.0,7.0,92,0.03,,,0.58,,2013-01-30 11:02:00,
2013-01-30 05:11:00,32.0,30.0,29.47,North,355,4.0,7.0,92,0.03,,,0.58,,2013-01-30 11:11:00,
2013-01-30 05:22:00,32.0,30.0,29.46,NNW,348,4.0,8.0,92,0.03,,,0.58,,2013-01-30 11:22:00,
2013-01-30 05:32:00,32.0,30.0,29.43,NNW,328,2.0,8.0,92,0.02,,,0.58,,2013-01-30 11:32:00,
2013-01-30 05:42:00,32.0,30.0,29.43,NNW,328,2.0,8.0,92,0.02,,,0.58,,2013-01-30 11:42:00,
2013-01-30 05:52:00,32.0,30.0,29.44,NNW,343,3.0,7.0,92,0.02,,,0.59,,2013-01-30 11:52:00,
2013-01-30 06:02:00,32.0,30.0,29.46,NE,38,3.0,7.0,92,0.01,,,0.59,,2013-01-30 12:02:00,
2013-01-30 06:12:00,32.0,30.0,29.46,NE,38,3.0,7.0,92,0.01,,,0.59,,2013-01-30 12:12:00,
2013-01-30 06:22:00,32.0,30.0,29.44,NNE,22,5.0,6.0,92,0.02,,,0.55,,2013-01-30 12:22:00,
2013-01-30 06:32:00,32.0,30.0,29.42,NNE,22,7.0,8.0,92,0.02,,,0.51,,2013-01-30 12:32:00,
2013-01-30 06:42:00,32.0,30.0,29.42,NNE,22,7.0,8.0,92,0.02,,,0.51,,2013-01-30 12:42:00,
2013-01-30 07:03:00,32.0,30.0,29.42,NE,40,2.0,8.0,93,0.02,,,0.52,,2013-01-30 13:03:00,
2013-01-30 07:12:00,32.0,30.0,29.42,NE,40,2.0,8.0,93,0.02,,,0.52,,2013-01-30 13:12:00,
2013-01-30 07:22:00,32.0,30.0,29.42,NE,39,6.0,7.0,92,0.02,,,0.53,,2013-01-30 13:22:00,
2013-01-30 07:32:00,32.0,30.0,29.41,NE,39,4.0,10.0,92,0.02,,,0.53,,2013-01-30 13:32:00,
2013-01-30 07:42:00,32.0,30.0,29.41,NE,39,4.0,10.0,92,0.02,,,0.53,,2013-01-30 13:42:00,
2013-01-30 07:53:00,32.0,30.0,29.40,NE,48,6.0,12.0,92,0.01,,,0.47,,2013-01-30 13:53:00,
2013-01-30 08:02:00,32.0,30.0,29.42,NE,48,6.0,7.0,92,0.01,,,0.41,,2013-01-30 14:02:00,
2013-01-30 08:12:00,32.0,30.0,29.42,NE,48,6.0,7.0,92,0.01,,,0.41,,2013-01-30 14:12:00,
2013-01-30 08:22:00,32.0,30.0,29.41,NE,48,1.0,8.0,92,0.01,,,0.42,,2013-01-30 14:22:00,
2013-01-30 08:33:00,31.0,29.0,29.41,North,5,4.0,12.0,92,0.01,,,0.42,,2013-01-30 14:33:00,
2013-01-30 08:42:00,31.0,29.0,29.41,North,5,4.0,12.0,92,0.01,,,0.42,,2013-01-30 14:42:00,
2013-01-30 08:52:00,31.0,29.0,29.42,NE,38,3.0,14.0,92,0.02,,,0.43,,2013-01-30 14:52:00,
2013-01-30 09:03:00,30.0,28.0,29.41,NNE,31,6.0,14.0,92,0.02,,,0.43,,2013-01-30 15:03:00,
2013-01-30 09:12:00,30.0,28.0,29.41,NNE,31,6.0,14.0,92,0.02,,,0.43,,2013-01-30 15:12:00,
2013-01-30 09:23:00,30.0,28.0,29.40,NNE,24,6.0,14.0,93,0.01,,,0.43,,2013-01-30 15:23:00,
2013-01-30 09:33:00,30.0,28.0,29.39,NNE,18,5.0,17.0,93,0.02,,,0.44,,2013-01-30 15:33:00,
2013-01-30 09:43:00,30.0,28.0,29.39,NNE,18,5.0,17.0,93,0.02,,,0.44,,2013-01-30 15:43:00,
2013-01-30 09:52:00,30.0,28.0,29.39,NE,41,3.0,9.0,93,0.01,,,0.44,,2013-01-30 15:52:00,
2013-01-30 10:03:00,30.0,28.0,29.39,North,5,6.0,17.0,93,0.02,,,0.45,,2013-01-30 16:03:00,
2013-01-30 10:12:00,30.0,28.0,29.39,North,5,6.0,17.0,93,0.02,,,0.45,,2013-01-30 16:12:00,
2013-01-30 10:23:00,29.0,27.0,29.39,North,360,6.0,17.0,92,0.02,,,0.45,,2013-01-30 16:23:00,
2013-01-30 10:32:00,29.0,27.0,29.39,North,5,7.0,12.0,92,0.02,,,0.46,,2013-01-30 16:32:00,
2013-01-30 10:42:00,29.0,27.0,29.39,North,5,7.0,12.0,92,0.02,,,0.46,,2013-01-30 16:42:00,
2013-01-30 10:52:00,29.0,27.0,29.39,North,5,7.0,12.0,92,0.02,,,0.46,,2013-01-30 16:52:00,
2013-01-30 11:02:00,29.0,27.0,29.41,NNW,346,3.0,12.0,92,0.02,,,0.47,,2013-01-30 17:02:00,
2013-01-30 11:12:00,29.0,27.0,29.41,NNW,346,3.0,12.0,92,0.02,,,0.47,,2013-01-30 17:12:00,
2013-01-30 11:22:00,28.0,26.0,29.40,North,349,10.0,18.0,93,0.03,,,0.48,,2013-01-30 17:22:00,
2013-01-30 11:33:00,28.0,26.0,29.39,NW,314,9.0,16.0,92,0.02,,,0.48,,2013-01-30 17:33:00,
2013-01-30 11:42:00,28.0,26.0,29.39,NW,314,9.0,16.0,92,0.02,,,0.48,,2013-01-30 17:42:00,
2013-01-30 11:53:00,28.0,26.0,29.39,NW,325,5.0,16.0,93,0.01,,,0.48,,2013-01-30 17:53:00,
2013-01-30 12:02:00,28.0,26.0,29.40,NNW,335,7.0,13.0,92,0.02,,,0.49,,2013-01-30 18:02:00,
2013-01-30 12:12:00,28.0,26.0,29.40,NNW,335,7.0,13.0,92,0.02,,,0.49,,2013-01-30 18:12:00,
2013-01-30 12:22:00,27.0,25.0,29.39,NNW,342,6.0,16.0,92,0.02,,,0.50,,2013-01-30 18:22:00,
2013-01-30 12:33:00,27.0,25.0,29.38,North,355,3.0,14.0,92,0.03,,,0.51,,2013-01-30 18:33:00,
2013-01-30 12:42:00,27.0,25.0,29.38,North,355,3.0,14.0,92,0.03,,,0.51,,2013-01-30 18:42:00,
2013-01-30 12:52:00,27.0,25.0,29.37,NNW,327,9.0,13.0,92,0.04,,,0.52,,2013-01-30 18:52:00,
2013-01-30 13:02:00,27.0,25.0,29.37,North,355,7.0,13.0,92,0.03,,,0.52,,2013-01-30 19:02:00,
2013-01-30 13:12:00,27.0,25.0,29.37,North,355,7.0,13.0,92,0.03,,,0.52,,2013-01-30 19:12:00,
2013-01-30 13:22:00,27.0,25.0,29.37,NNW,336,8.0,15.0,92,0.03,,,0.53,,2013-01-30 19:22:00,
2013-01-30 13:32:00,26.0,24.0,29.38,NW,321,8.0,17.0,92,0.02,,,0.53,,2013-01-30 19:32:00,
2013-01-30 13:43:00,26.0,24.0,29.38,NW,321,8.0,17.0,92,0.02,,,0.53,,2013-01-30 19:43:00,
2013-01-30 13:52:00,26.0,24.0,29.38,North,351,6.0,17.0,92,0.01,,,0.53,,2013-01-30 19:52:00,
2013-01-30 14:03:00,26.0,24.0,29.38,NW,321,5.0,13.0,92,0.01,,,0.53,,2013-01-30 20:03:00,
2013-01-30 14:12:00,26.0,24.0,29.38,NW,321,5.0,13.0,92,0.01,,,0.53,,2013-01-30 20:12:00,
2013-01-30 14:22:00,26.0,24.0,29.38,NW,324,6.0,14.0,92,0.00,,,0.53,,2013-01-30 20:22:00,
2013-01-30 14:33:00,26.0,24.0,29.38,NNW,331,7.0,14.0,92,0.01,,,0.53,,2013-01-30 20:33:00,
2013-01-30 14:42:00,26.0,24.0,29.38,NNW,331,7.0,14.0,92,0.01,,,0.53,,2013-01-30 20:42:00,
2013-01-30 14:53:00,27.0,25.0,29.39,NW,314,5.0,12.0,92,0.01,,,0.51,,2013-01-30 20:53:00,
2013-01-30 15:03:00,26.0,24.0,29.39,NW,323,5.0,21.0,92,0.01,,,0.48,,2013-01-30 21:03:00,
2013-01-30 15:12:00,26.0,24.0,29.39,NW,323,5.0,21.0,92,0.01,,,0.48,,2013-01-30 21:12:00,
2013-01-30 15:22:00,26.0,24.0,29.40,WNW,282,15.0,15.0,92,0.01,,,0.47,,2013-01-30 21:22:00,
2013-01-30 15:32:00,26.0,24.0,29.40,NW,319,9.0,15.0,92,0.00,,,0.43,,2013-01-30 21:32:00,
2013-01-30 15:42:00,26.0,24.0,29.40,NW,319,9.0,15.0,92,0.00,,,0.43,,2013-01-30 21:42:00,
2013-01-30 15:52:00,25.0,23.0,29.41,NW,311,8.0,18.0,92,0.00,,,0.42,,2013-01-30 21:52:00,
2013-01-30 16:02:00,25.0,23.0,29.42,NNW,336,11.0,16.0,92,0.00,,,0.42,,2013-01-30 22:02:00,
2013-01-30 16:12:00,25.0,23.0,29.42,NNW,336,11.0,16.0,92,0.00,,,0.42,,2013-01-30 22:12:00,
2013-01-30 16:22:00,25.0,23.0,29.42,North,355,11.0,20.0,91,0.00,,,0.42,,2013-01-30 22:22:00,
2013-01-30 16:32:00,24.0,22.0,29.42,NW,319,10.0,19.0,92,0.00,,,0.42,,2013-01-30 22:32:00,
2013-01-30 16:42:00,24.0,22.0,29.42,NW,319,10.0,19.0,92,0.00,,,0.42,,2013-01-30 22:42:00,
2013-01-30 16:52:00,24.0,22.0,29.43,NW,308,13.0,18.0,91,0.00,,,0.42,,2013-01-30 22:52:00,
2013-01-30 17:02:00,24.0,22.0,29.44,WNW,301,17.0,-999.0,91,0.00,,,0.42,,2013-01-30 23:02:00,
2013-01-30 17:12:00,24.0,22.0,29.44,WNW,301,17.0,-999.0,91,0.00,,,0.42,,2013-01-30 23:12:00,
2013-01-30 17:22:00,24.0,22.0,29.45,West,267,9.0,19.0,91,0.00,,,0.42,,2013-01-30 23:22:00,
2013-01-30 17:32:00,23.0,21.0,29.46,NW,304,7.0,19.0,91,0.00,,,0.42,,2013-01-30 23:32:00,
2013-01-30 17:42:00,23.0,21.0,29.46,NW,304,7.0,19.0,91,0.00,,,0.42,,2013-01-30 23:42:00,
2013-01-30 17:52:00,22.0,20.0,29.44,WNW,286,16.0,22.0,90,0.00,,,0.42,,2013-01-30 23:52:00,
2013-01-30 18:02:00,21.0,19.0,29.45,WNW,292,10.0,17.0,90,0.00,,,0.41,,2013-01-31 00:02:00,
2013-01-30 18:11:00,21.0,19.0,29.45,WNW,292,10.0,17.0,90,0.00,,,0.41,,2013-01-31 00:11:00,
2013-01-30 18:22:00,20.0,18.0,29.47,NW,310,6.0,20.0,90,0.00,,,0.40,,2013-01-31 00:22:00,
2013-01-30 18:32:00,20.0,18.0,29.48,WNW,302,11.0,21.0,90,0.00,,,0.39,,2013-01-31 00:32:00,
2013-01-30 18:42:00,20.0,18.0,29.48,WNW,302,11.0,21.0,90,0.00,,,0.39,,2013-01-31 00:42:00,
2013-01-30 18:53:00,20.0,18.0,29.48,NW,325,14.0,18.0,90,0.00,,,0.39,,2013-01-31 00:53:00,
2013-01-30 19:02:00,19.0,17.0,29.49,WNW,284,10.0,15.0,90,0.00,,,0.37,,2013-01-31 01:02:00,
2013-01-30 19:11:00,19.0,17.0,29.49,WNW,284,10.0,15.0,90,0.00,,,0.37,,2013-01-31 01:11:00,
2013-01-30 19:21:00,19.0,17.0,29.49,NW,312,8.0,22.0,90,0.00,,,0.36,,2013-01-31 01:21:00,
2013-01-30 19:31:00,18.0,16.0,29.50,WNW,286,10.0,23.0,90,0.00,,,0.36,,2013-01-31 01:31:00,
2013-01-30 19:42:00,18.0,16.0,29.50,WNW,286,10.0,23.0,90,0.00,,,0.36,,2013-01-31 01:42:00,
2013-01-30 19:52:00,18.0,16.0,29.50,NW,307,12.0,22.0,90,0.00,,,0.35,,2013-01-31 01:52:00,
2013-01-30 20:01:00,18.0,16.0,29.52,NNW,327,4.0,19.0,90,0.00,,,0.35,,2013-01-31 02:01:00,
2013-01-30 20:11:00,18.0,16.0,29.52,NNW,327,4.0,19.0,90,0.00,,,0.35,,2013-01-31 02:11:00,
2013-01-30 20:21:00,18.0,16.0,29.52,WNW,286,6.0,17.0,90,0.00,,,0.35,,2013-01-31 02:21:00,
2013-01-30 20:32:00,17.0,14.0,29.53,WNW,296,15.0,22.0,89,0.00,,,0.35,,2013-01-31 02:32:00,
2013-01-30 20:41:00,17.0,14.0,29.53,WNW,296,15.0,22.0,89,0.00,,,0.35,,2013-01-31 02:41:00,
2013-01-30 20:52:00,17.0,14.0,29.53,WNW,296,15.0,22.0,89,0.00,,,0.35,,2013-01-31 02:52:00,
2013-01-30 21:03:00,16.0,13.0,29.54,WNW,296,9.0,16.0,89,0.00,,,0.35,,2013-01-31 03:03:00,
2013-01-30 21:11:00,16.0,13.0,29.54,WNW,296,9.0,16.0,89,0.00,,,0.35,,2013-01-31 03:11:00,
2013-01-30 21:21:00,16.0,13.0,29.54,WNW,284,10.0,18.0,89,0.00,,,0.34,,2013-01-31 03:21:00,
2013-01-30 21:32:00,16.0,13.0,29.55,WNW,296,8.0,18.0,89,0.00,,,0.33,,2013-01-31 03:32:00,
2013-01-30 21:41:00,16.0,13.0,29.55,WNW,296,8.0,18.0,89,0.00,,,0.33,,2013-01-31 03:41:00,
2013-01-30 21:51:00,15.0,12.0,29.56,WNW,301,6.0,18.0,89,0.00,,,0.33,,2013-01-31 03:51:00,
2013-01-30 22:02:00,15.0,12.0,29.57,West,261,12.0,18.0,89,0.00,,,0.31,,2013-01-31 04:02:00,
2013-01-30 22:11:00,15.0,12.0,29.57,West,261,12.0,18.0,89,0.00,,,0.31,,2013-01-31 04:11:00,
2013-01-30 22:22:00,15.0,12.0,29.57,West,270,8.0,15.0,88,0.00,,,0.30,,2013-01-31 04:22:00,
2013-01-30 22:31:00,15.0,12.0,29.57,WNW,300,12.0,17.0,88,0.00,,,0.28,,2013-01-31 04:31:00,
2013-01-30 22:41:00,15.0,12.0,29.57,WNW,300,12.0,17.0,88,0.00,,,0.28,,2013-01-31 04:41:00,
2013-01-30 22:51:00,15.0,12.0,29.58,NW,309,12.0,17.0,88,0.00,,,0.28,,2013-01-31 04:51:00,
2013-01-30 23:03:00,15.0,12.0,29.58,West,273,7.0,16.0,88,0.00,,,0.26,,2013-01-31 05:03:00,
2013-01-30 23:11:00,15.0,12.0,29.58,West,273,7.0,16.0,88,0.00,,,0.26,,2013-01-31 05:11:00,
2013-01-30 23:22:00,15.0,12.0,29.59,WNW,283,13.0,19.0,88,0.00,,,0.26,,2013-01-31 05:22:00,
2013-01-30 23:32:00,15.0,12.0,29.59,WNW,283,13.0,19.0,88,0.00,,,0.26,,2013-01-31 05:32:00,
2013-01-30 23:41:00,15.0,12.0,29.60,NW,304,7.0,23.0,88,0.00,,,0.26,,2013-01-31 05:41:00,
2013-01-30 23:51:00,15.0,12.0,29.60,NW,304,7.0,23.0,88,0.00,,,0.26,,2013-01-31 05:51:00,